Gallup, NM

3:38 PM MDT on May 25, 2017 (GMT -0600)
Gallup Municipal

Weather History for KGUP - April, 2013

Change the Weather History Date:

Monday, April 29, 2013

  Actual Average Record
Temperature  
Mean Temperature 54 °F -  
Max Temperature 82 °F 66 °F 83 °F (1992)
Min Temperature 30 °F 28 °F 19 °F (1991)
Degree Days  
Heating Degree Days 10    
Growing Degree Days 4 (Base 50)    
Moisture  
Dew Point 10 °F    
Average Humidity 18    
Maximum Humidity 35    
Minimum Humidity 8    
Precipitation  
Precipitation 0.00 in - - ()
Sea Level Pressure  
Sea Level Pressure 29.71 in    
Wind  
Wind Speed 5 mph (WNW)    
Max Wind Speed 18 mph    
Max Gust Speed 28 mph    
Visibility 10 miles    
Events      
Averages and records for this station are not official NWS values.
T = Trace of Precipitation, MM = Missing Value Source: NWS Daily Summary

Daily Weather History Graph

Daily Weather History Graph

Search for Another Location

Airport or City:

Trip Planner

Search our weather history database for the weather conditions in past years. The results will help you decide how hot, cold, wet, or windy it might be!

Date:

Astronomy

Apr. 29, 2013 Rise Set
Actual Time 6:25 AM MDT 8:00 PM MDT
Civil Twilight 5:58 AM MDT 8:27 PM MDT
Nautical Twilight 5:25 AM MDT 9:00 PM MDT
Astronomical Twilight 4:51 AM MDT 9:34 PM MDT
Moon No Moon Rise 9:52 AM MDT (4/29)
Length of Visible Light 14h 29m
Length of Day
13h 34m
Waning Gibbous, 79% of the Moon is Illuminated
Apr 29
Waning Gibbous
May 2
Last Quarter
May 9
New
May 17
First Quarter
May 24
Full

Hourly Weather History & Observations

Time (MDT) Temp. Windchill Dew Point Humidity Pressure Visibility Wind Dir Wind Speed Gust Speed Precip Events Conditions
12:53 AM 37.9 °F 35.5 °F 3.0 °F 23% 29.79 in 10.0 mi East 3.5 mph - N/A   Clear
1:53 AM 34.0 °F - 1.9 °F 26% 29.81 in 10.0 mi Calm Calm - N/A   Clear
2:53 AM 36.0 °F 33.3 °F 3.9 °F 26% 29.78 in 10.0 mi ENE 3.5 mph - N/A   Clear
3:53 AM 34.0 °F - 3.0 °F 27% 29.78 in 10.0 mi Calm Calm - N/A   Clear
4:53 AM 33.1 °F - 5.0 °F 31% 29.78 in 10.0 mi Calm Calm - N/A   Clear
5:53 AM 30.9 °F 26.2 °F 6.1 °F 35% 29.82 in 10.0 mi WSW 4.6 mph - N/A   Clear
6:53 AM 35.1 °F 28.6 °F 7.0 °F 31% 29.81 in 10.0 mi NE 8.1 mph - N/A   Clear
7:53 AM 44.1 °F 42.5 °F 10.0 °F 25% 29.79 in 10.0 mi NNE 3.5 mph - N/A   Clear
8:53 AM 53.1 °F - 12.0 °F 20% 29.76 in 10.0 mi Calm Calm - N/A   Clear
9:53 AM 66.0 °F - 15.1 °F 14% 29.72 in 10.0 mi West 5.8 mph - N/A   Clear
10:53 AM 72.0 °F - 15.1 °F 11% 29.70 in 10.0 mi WSW 11.5 mph - N/A   Clear
11:53 AM 73.9 °F - 15.1 °F 11% 29.71 in 10.0 mi WSW 5.8 mph 17.3 mph N/A   Clear
12:53 PM 78.1 °F - 15.1 °F 9% 29.69 in 10.0 mi NW 12.7 mph 19.6 mph N/A   Clear
1:18 PM 77.0 °F - 14.0 °F 9% 30.00 in 10.0 mi West 13.8 mph 20.7 mph N/A   Clear
1:53 PM 79.0 °F - 14.0 °F 9% 29.67 in 10.0 mi West 18.4 mph 25.3 mph N/A   Clear
2:53 PM 79.0 °F - 12.9 °F 8% 29.64 in 10.0 mi West 18.4 mph 27.6 mph N/A   Clear
3:53 PM 75.9 °F - 14.0 °F 10% 29.65 in 10.0 mi WNW 8.1 mph - N/A   Partly Cloudy
4:53 PM 75.9 °F - 12.0 °F 9% 29.63 in 10.0 mi NW 16.1 mph 23.0 mph N/A   Clear
5:53 PM 75.0 °F - 12.0 °F 9% 29.65 in 10.0 mi West 17.3 mph 25.3 mph N/A   Clear
6:53 PM 75.9 °F - 12.0 °F 9% 29.60 in 10.0 mi WNW 11.5 mph 23.0 mph N/A   Clear
7:53 PM 70.0 °F - 12.0 °F 11% 29.59 in 10.0 mi West 8.1 mph - N/A   Clear
8:53 PM 62.1 °F - 10.9 °F 13% 29.59 in 10.0 mi Calm Calm - N/A   Clear
9:53 PM 54.0 °F - 10.9 °F 18% 29.57 in 10.0 mi Calm Calm - N/A   Clear
10:53 PM 48.0 °F - 10.0 °F 22% 29.58 in 10.0 mi Calm Calm - N/A   Clear
11:53 PM 48.0 °F - 10.9 °F 22% 29.57 in 10.0 mi Calm Calm - N/A   Clear